Regional Weather Roundup
Issued by NWS

Home | Current Version | Previous Version | Graphics & Text | Print | Product List | Glossary On
Versions: 1 2 3 4 5 6 7 8 9 10 11 12 13 14 15 16 17 18 19 20 21 22 23 24 25 26 27 28 29 30 31 32 33 34 35 36 37 38 39 40 41 42 43 44 45 46 47 48 49 50
752
ASUS43 KLMK 291902
RWRKY
KENTUCKY REGIONAL WEATHER ROUNDUP
NATIONAL WEATHER SERVICE LOUISVILLE KY
300 PM EDT FRI APR 29 2016

NOTE "FAIR" INDICATES FEW OR NO CLOUDS BELOW 12,000 FEET
WITH NO SIGNIFICANT WEATHER AND/OR OBSTRUCTIONS TO VISIBILITY.

KYZ001>023-026-027-061>063-070>075-292000-
WESTERN AND SOUTH CENTRAL KENTUCKY

CITY           SKY/WX    TMP DP  RH WIND       PRES   REMARKS
PADUCAH        LGT RAIN  62  57  83 CALM      30.04R
HENDERSON      CLOUDY    66  48  52 SE3       30.03F
OWENSBORO      CLOUDY    68  51  54 N7        30.05R
HOPKINSVILLE   PTSUNNY   68  59  72 NE6       30.02S
BOWLING GREEN  CLOUDY    73  55  53 E3        30.03R
GLASGOW        NOT AVBL
$$

KYZ024-025-028>034-038-045-046-053-292000-
NORTH CENTRAL KENTUCKY

CITY           SKY/WX    TMP DP  RH WIND       PRES   REMARKS
LOUISVILLE/SDF CLOUDY    71  47  42 E6        30.02F
LOUISVILLE/LOU CLOUDY    70  47  43 VRB5      30.03F
FORT KNOX      CLOUDY    69  48  46 S3        30.02R
$$

KYZ035>037-039>044-047>052-055>060-089>105-292000-
NORTHEAST KENTUCKY

CITY           SKY/WX    TMP DP  RH WIND       PRES   REMARKS
LEXINGTON      MOSUNNY   70  47  43 W7        30.03F
COVINGTON      PTSUNNY   68  49  50 NW12      30.03S
FRANKFORT      CLOUDY    69  46  43 W5        30.02F
$$

KYZ054-064>069-076>088-106>120-292000-
SOUTHEAST KENTUCKY

CITY           SKY/WX    TMP DP  RH WIND       PRES   REMARKS
JACKSON        CLOUDY    76  50  40 VRB7      30.01F
LONDON         MOSUNNY   77  45  32 W6        30.02F
SOMERSET       NOT AVBL
MIDDLESBORO    CLOUDY    79  45  29 W7        30.01F
MONTICELLO     MOCLDY    75  49  39 N14       30.03F
$$





USA.gov is the U.S. government's official web portal to all federal, state and local government web resources and services.